Home > Weather > Owensboro > Past weeks

Flag for U.S.A. Weather for the Past 2 Weeks in Owensboro, Kentucky, U.S.A.

Now
30 °F

Light snow. Partly cloudy.


Feels Like: 20 °F
Forecast: 19 / 25 °F
Wind: 12 mph from Northwest

Location: Owensboro / Daviess

Current Time: Feb 8, 2016 at 6:00:36 PM

Latest Report: Feb 8, 2016 at 4:56 PM


Visibility: 10 mi

Pressure: 29.87 "Hg

Humidity: 75%

Dew point: 23 °F

Location of OwensboroLocation

Historic Weather in Owensboro — Graph

°F

Owensboro Temperature Yesterday

Maximum temperature yesterday: 57 °F (at 1:56 PM)
Minimum temperature yesterday: 31 °F (at 5:56 AM)
Average temperature yesterday: 44 °F

High & Low Weather Summary for the Past Weeks

 TemperatureHumidityPressure
High66 °F (Feb 2, 3:01 PM)100% (Jan 26, 12:56 AM)30.46 "Hg (Jan 26, 12:56 AM)
Low24 °F (Feb 5, 3:56 AM)35% (Feb 6, 3:56 PM)29.56 "Hg (Feb 2, 9:56 PM)
Average42 °F71%30.04 "Hg
* Reported Jan 24 3:56 PM — Feb 8 3:56 PM, Owensboro, Weather by CustomWeather, © 2016

Note: Actual official high and low records may vary slightly from our data, if they occured in-between our weather recording intervals... More about our weather records

Advertising

Owensboro Weather History for the Previous 24 Hours

 ConditionsComfort  
Time TempWeatherWind HumidityBarometerVisibility
3:56 PM
Mon, Feb 8
29 °FLight snow. Ice fog.17 mph92%29.85 "Hg2 mi
3:03 PM30 °FSnow. Ice fog.16 mph93%29.82 "Hg0 mi
1:58 PM30 °FLight snow. Ice fog.14 mph93%29.80 "Hg1 mi
12:56 PM35 °FLight snow. Overcast.18 mph73%29.78 "Hg7 mi
11:56 AM38 °FBroken clouds.20 mph60%29.77 "Hg10 mi
10:56 AM38 °FPartly sunny.18 mph68%29.78 "Hg10 mi
9:56 AM38 °FPartly sunny.12 mph86%29.77 "Hg10 mi
8:56 AM38 °FMostly cloudy.10 mph86%29.78 "Hg10 mi
7:56 AM34 °FPartly sunny.9 mph100%29.77 "Hg10 mi
6:56 AM34 °FScattered clouds.6 mph100%29.77 "Hg8 mi
6:04 AM34 °FLight snow. Fog.6 mph100%29.77 "Hg2 mi
4:56 AM38 °FRain. Fog.21 mph93%29.77 "Hg5 mi
3:56 AM36 °FPassing clouds.7 mph96%29.76 "Hg10 mi
2:56 AM35 °FClear.6 mph97%29.78 "Hg10 mi
1:56 AM38 °FPartly cloudy.No wind96%29.80 "Hg10 mi
12:56 AM40 °FLight rain. Mostly cloudy.5 mph93%29.83 "Hg10 mi
11:56 PM
Sun, Feb 7
45 °FPartly cloudy.14 mph65%29.84 "Hg10 mi
10:56 PM46 °FPassing clouds.12 mph63%29.84 "Hg10 mi
9:56 PM48 °FMostly cloudy.8 mph56%29.85 "Hg10 mi
8:56 PM46 °FPassing clouds.9 mph61%29.85 "Hg10 mi
7:56 PM47 °FOvercast.8 mph58%29.88 "Hg10 mi
6:56 PM44 °FPassing clouds.7 mph63%29.90 "Hg10 mi
Weather by CustomWeather, © 2016

See weather overviewHow to use our weather pages